Temp
-7 -6 -7 -7 -7 -7 -7 -7 -7 -7 -7 -7 -7 -7 -7 -6 -7 -7 -7 -6 -7 -7 -7 -7 -7 -7 -7 -7 -8 -8 -7 -6 -7 -7 -8 -9 -10 -9 -10 -10 -10 -10 -9 -8 -7
-6 -6 -6 -6 -6 -6 -6 -6 -6 -7 -7 -7 -7 -7 -7 -7 -7 -7 -7 -7 -6 -6 -7 -7 -7 -7 -7 -8 -8 -8 -8 -7 -8 -9 -8 -10 -10 -9 -9 -10 -10 -10 -10 -9 -8
-6 -6 -6 -6 -6 -6 -6 -6 -6 -6 -6 -7 -7 -7 -7 -7 -7 -7 -7 -7 -7 -7 -7 -7 -7 -7 -7 -8 -8 -8 -7 -8 -9 -9 -10 -10 -9 -10 -10 -8 -9 -9 -8 -8 -7
-6 -6 -6 -6 -6 -6 -6 -6 -6 -6 -6 -6 -6 -6 -7 -7 -7 -7 -7 -7 -7 -7 -7 -7 -7 -7 -8 -8 -9 -8 -8 -9 -9 -9 -10 -9 -9 -8 -9 -8 -7 -8 -9 -9 -8
-6 -6 -6 -6 -6 -6 -6 -6 -6 -6 -6 -6 -6 -6 -6 -7 -8 -7 -8 -8 -7 -7 -8 -8 -7 -8 -8 -9 -9 -8 -9 -9 -10 -10 -10 -10 -9 -9 -9 -8 -9 -9 -8 -9 -8
-6 -6 -6 -6 -6 -6 -6 -6 -6 -6 -6 -6 -6 -6 -6 -7 -7 -7 -8 -8 -8 -8 -8 -8 -8 -9 -8 -9 -9 -10 -10 -10 -10 -10 -11 -10 -10 -10 -9 -10 -9 -9 -9 -9 -8
-7 -7 -7 -7 -7 -6 -6 -6 -6 -6 -6 -6 -6 -6 -6 -8 -7 -8 -8 -8 -8 -8 -8 -9 -8 -8 -9 -9 -10 -10 -10 -10 -10 -10 -11 -11 -10 -9 -10 -10 -10 -10 -10 -9 -9
-7 -7 -7 -7 -7 -7 -7 -7 -6 -7 -7 -7 -7 -6 -6 -9 -8 -8 -9 -8 -9 -9 -9 -9 -9 -9 -8 -9 -10 -10 -10 -10 -10 -11 -11 -12 -10 -10 -10 -10 -10 -10 -10 -9 -9
-6 -6 -6 -7 -7 -7 -7 -7 -6 -6 -6 -6 -7 -7 -6 -8 -8 -9 -9 -9 -9 -9 -9 -9 -9 -9 -9 -9 -10 -10 -10 -10 -11 -11 -11 -11 -10 -11 -11 -11 -10 -10 -10 -9 -9
-6 -6 -6 -6 -6 -6 -6 -6 -6 -6 -6 -7 -7 -6 -7 -7 -8 -8 -9 -9 -9 -10 -10 -9 -9 -9 -9 -9 -9 -10 -10 -11 -11 -12 -12 -12 -11 -12 -12 -11 -11 -11 -10 -10 -9
-7 -6 -7 -6 -7 -7 -7 -7 -7 -7 -7 -6 -6 -7 -8 -9 -8 -9 -10 -9 -10 -10 -10 -10 -10 -9 -10 -11 -11 -12 -12 -12 -12 -13 -13 -12 -13 -13 -13 -12 -11 -11 -10 -10 -10
-7 -7 -7 -7 -7 -8 -8 -8 -8 -8 -7 -7 -7 -7 -9 -11 -9 -9 -10 -10 -10 -10 -11 -11 -10 -10 -11 -11 -11 -12 -12 -12 -12 -14 -14 -14 -14 -14 -15 -13 -14 -14 -12 -11 -11
-8 -8 -8 -8 -8 -8 -9 -9 -9 -10 -9 -8 -8 -8 -10 -11 -10 -10 -10 -11 -11 -12 -11 -11 -11 -12 -12 -12 -11 -12 -12 -13 -13 -14 -15 -15 -14 -15 -15 -15 -15 -15 -14 -13 -12
-9 -9 -9 -9 -10 -10 -11 -10 -11 -11 -11 -8 -10 -10 -11 -11 -10 -12 -12 -12 -12 -12 -12 -12 -13 -13 -12 -12 -12 -12 -13 -13 -14 -15 -15 -15 -14 -14 -15 -15 -15 -14 -14 -14 -13
-9 -9 -10 -10 -9 -12 -11 -13 -13 -14 -13 -12 -13 -14 -14 -13 -14 -14 -15 -14 -13 -13 -14 -11 -13 -13 -12 -13 -13 -13 -14 -14 -15 -14 -15 -15 -15 -14 -15 -14 -15 -15 -15 -14 -14
-9 -10 -10 -10 -13 -13 -14 -15 -15 -15 -14 -14 -15 -17 -17 -16 -16 -17 -16 -16 -14 -16 -15 -14 -14 -14 -14 -14 -14 -15 -14 -15 -16 -15 -14 -15 -15 -13 -14 -14 -14 -15 -14 -14 -14
-10 -11 -12 -13 -15 -15 -15 -16 -16 -16 -17 -17 -17 -18 -19 -17 -15 -16 -17 -16 -15 -15 -14 -15 -15 -14 -15 -15 -15 -16 -16 -16 -16 -16 -15 -15 -15 -13 -14 -14 -13 -15 -14 -13 -13
-12 -13 -16 -16 -17 -17 -17 -18 -17 -18 -20 -18 -19 -19 -19 -19 -18 -16 -17 -16 -16 -16 -16 -15 -14 -15 -15 -15 -16 -16 -16 -15 -15 -15 -14 -14 -13 -13 -15 -15 -14 -14 -13 -12 -13
-14 -16 -17 -17 -18 -19 -19 -19 -19 -21 -21 -20 -19 -20 -19 -19 -19 -18 -17 -16 -17 -16 -16 -16 -15 -16 -16 -16 -16 -16 -16 -16 -16 -15 -15 -15 -14 -14 -15 -15 -14 -13 -13 -13 -14
-16 -17 -18 -19 -20 -20 -20 -21 -20 -22 -21 -21 -21 -21 -19 -20 -20 -19 -17 -16 -16 -16 -17 -17 -17 -16 -16 -16 -16 -16 -16 -16 -16 -16 -15 -14 -14 -14 -14 -15 -14 -14 -14 -14 -13
-18 -19 -19 -20 -21 -21 -21 -21 -21 -22 -21 -21 -21 -20 -20 -20 -21 -18 -17 -16 -16 -15 -16 -17 -17 -16 -15 -15 -15 -16 -16 -16 -16 -16 -15 -14 -14 -14 -14 -14 -13 -14 -15 -14 -13
-19 -20 -20 -22 -21 -21 -21 -21 -21 -21 -21 -21 -20 -20 -21 -20 -20 -18 -17 -17 -17 -17 -15 -16 -16 -16 -15 -15 -15 -16 -16 -16 -16 -16 -15 -14 -15 -14 -14 -14 -14 -13 -13 -14 -14
-20 -21 -21 -22 -22 -22 -21 -22 -21 -20 -21 -20 -20 -20 -21 -20 -20 -19 -18 -17 -17 -16 -16 -15 -16 -16 -15 -15 -15 -16 -16 -16 -15 -15 -15 -15 -15 -14 -14 -14 -14 -14 -14 -14 -14
-22 -22 -23 -23 -22 -22 -21 -22 -22 -21 -21 -21 -21 -21 -20 -20 -20 -19 -19 -18 -16 -16 -16 -15 -15 -15 -15 -15 -15 -15 -16 -16 -16 -15 -15 -15 -15 -15 -15 -14 -14 -14 -14 -14 -14
-23 -24 -24 -24 -23 -22 -22 -22 -22 -22 -21 -21 -21 -20 -20 -19 -20 -19 -18 -18 -17 -16 -15 -16 -16 -15 -15 -15 -15 -16 -16 -16 -16 -15 -16 -15 -15 -15 -15 -15 -15 -14 -14 -15 -15
-24 -25 -25 -24 -24 -23 -23 -23 -22 -22 -21 -21 -21 -20 -20 -20 -19 -19 -18 -17 -17 -16 -15 -16 -16 -15 -15 -15 -15 -16 -16 -16 -16 -15 -16 -15 -15 -15 -16 -15 -15 -15 -15 -15 -15
-26 -25 -25 -25 -25 -24 -23 -23 -21 -22 -21 -21 -21 -20 -20 -19 -19 -18 -18 -17 -17 -16 -16 -16 -15 -15 -15 -16 -16 -16 -16 -16 -15 -15 -15 -15 -15 -15 -15 -15 -15 -15 -15 -14 -14
Height
5842 5840 5838 5836 5835 5833 5831 5830 5829 5828 5827 5825 5824 5822 5821 5820 5818 5820 5818 5819 5818 5818 5818 5818 5819 5820 5820 5822 5823 5824 5824 5829 5836 5837 5845 5849 5845 5847 5849 5853 5857 5857 5859 5862 5868
5839 5838 5836 5834 5832 5829 5827 5825 5823 5822 5820 5819 5818 5817 5816 5816 5815 5816 5815 5812 5812 5811 5812 5812 5812 5812 5813 5814 5814 5814 5818 5825 5829 5831 5832 5836 5834 5836 5835 5839 5846 5849 5854 5856 5861
5836 5834 5832 5830 5828 5826 5823 5821 5818 5816 5814 5813 5811 5810 5810 5811 5811 5811 5806 5807 5806 5807 5805 5806 5805 5804 5804 5805 5805 5807 5811 5815 5819 5823 5825 5826 5825 5824 5824 5827 5833 5844 5848 5851 5849
5832 5830 5828 5825 5822 5819 5817 5815 5813 5811 5808 5806 5805 5803 5803 5804 5805 5803 5801 5800 5799 5799 5799 5797 5797 5796 5797 5795 5798 5798 5801 5803 5809 5813 5815 5815 5818 5817 5818 5821 5831 5839 5839 5843 5844
5829 5826 5823 5820 5817 5814 5812 5809 5806 5805 5802 5800 5798 5796 5795 5797 5794 5796 5795 5792 5792 5791 5791 5790 5788 5788 5788 5789 5788 5788 5792 5794 5798 5802 5806 5807 5811 5812 5814 5819 5821 5828 5832 5836 5840
5824 5820 5817 5813 5810 5808 5805 5803 5800 5797 5794 5791 5790 5788 5787 5791 5783 5783 5785 5784 5783 5783 5781 5780 5781 5779 5777 5779 5779 5782 5783 5785 5787 5792 5795 5798 5800 5808 5811 5809 5812 5818 5824 5826 5831
5818 5814 5811 5807 5803 5800 5796 5793 5790 5788 5785 5782 5779 5777 5778 5781 5772 5774 5773 5772 5771 5771 5771 5771 5770 5769 5771 5770 5774 5772 5772 5775 5777 5780 5787 5787 5788 5799 5804 5803 5806 5809 5815 5819 5822
5810 5806 5801 5797 5793 5789 5785 5781 5777 5775 5772 5769 5767 5765 5768 5765 5758 5762 5759 5762 5760 5760 5760 5760 5760 5759 5760 5762 5760 5761 5761 5762 5768 5774 5778 5778 5781 5790 5793 5795 5798 5800 5805 5810 5814
5801 5797 5792 5787 5782 5778 5773 5769 5765 5762 5758 5756 5753 5750 5753 5751 5747 5745 5746 5748 5748 5748 5748 5747 5747 5750 5750 5748 5750 5749 5753 5757 5764 5767 5768 5769 5775 5781 5784 5785 5789 5791 5795 5802 5806
5791 5786 5780 5775 5770 5766 5761 5755 5750 5750 5746 5742 5738 5739 5737 5735 5734 5733 5733 5733 5735 5735 5734 5735 5736 5738 5737 5737 5743 5749 5749 5751 5752 5759 5758 5761 5765 5769 5774 5777 5780 5782 5785 5792 5798
5780 5774 5768 5762 5756 5751 5748 5742 5734 5733 5731 5729 5724 5723 5717 5716 5718 5719 5717 5715 5716 5719 5722 5724 5724 5725 5731 5735 5737 5737 5738 5740 5745 5749 5752 5753 5756 5760 5767 5768 5771 5774 5777 5783 5788
5767 5761 5754 5747 5739 5733 5728 5720 5713 5709 5714 5709 5707 5704 5704 5695 5698 5699 5699 5700 5700 5705 5708 5709 5710 5717 5721 5722 5724 5726 5729 5731 5737 5742 5746 5747 5750 5754 5762 5762 5765 5767 5769 5777 5779
5752 5745 5738 5730 5722 5713 5706 5697 5691 5683 5681 5696 5686 5686 5683 5673 5680 5675 5681 5683 5683 5686 5691 5695 5705 5706 5707 5710 5713 5716 5720 5726 5732 5736 5742 5743 5744 5748 5754 5756 5760 5762 5764 5768 5771
5736 5728 5719 5712 5700 5692 5681 5674 5666 5655 5652 5671 5664 5661 5658 5654 5657 5657 5655 5663 5667 5671 5677 5680 5688 5692 5694 5699 5704 5707 5715 5721 5725 5728 5731 5736 5735 5737 5744 5750 5753 5755 5757 5762 5766
5716 5707 5697 5686 5684 5668 5659 5649 5639 5631 5621 5647 5640 5631 5632 5636 5639 5641 5638 5640 5651 5659 5659 5670 5676 5680 5684 5690 5696 5701 5708 5713 5718 5719 5723 5725 5727 5731 5739 5742 5746 5751 5752 5756 5761
5695 5683 5673 5663 5652 5643 5635 5626 5617 5612 5599 5624 5628 5618 5618 5618 5622 5621 5622 5626 5634 5641 5645 5655 5663 5667 5675 5682 5688 5695 5700 5705 5710 5712 5711 5719 5722 5725 5731 5736 5740 5745 5743 5746 5753
5675 5658 5646 5635 5632 5618 5612 5602 5597 5592 5593 5598 5603 5598 5597 5604 5600 5606 5610 5615 5618 5625 5633 5642 5649 5659 5665 5671 5678 5687 5692 5695 5699 5699 5701 5713 5718 5720 5728 5728 5734 5737 5733 5735 5742
5652 5633 5625 5612 5602 5594 5588 5585 5581 5582 5575 5577 5581 5580 5580 5584 5589 5589 5596 5603 5609 5618 5626 5633 5640 5646 5655 5662 5672 5676 5683 5684 5688 5693 5700 5706 5706 5715 5721 5721 5726 5726 5726 5728 5736
5627 5615 5601 5594 5582 5576 5572 5570 5570 5567 5566 5564 5563 5564 5568 5573 5575 5578 5583 5593 5602 5609 5617 5625 5632 5643 5648 5658 5666 5670 5673 5683 5688 5692 5695 5699 5702 5709 5712 5712 5717 5717 5719 5725 5731
5606 5598 5586 5580 5572 5568 5566 5563 5559 5557 5554 5555 5556 5562 5561 5566 5565 5568 5572 5585 5593 5601 5611 5620 5628 5637 5645 5651 5657 5664 5672 5677 5680 5683 5685 5692 5696 5700 5698 5705 5708 5713 5717 5721 5722
5585 5578 5572 5566 5563 5560 5560 5557 5556 5556 5552 5551 5553 5553 5556 5559 5557 5563 5568 5575 5581 5593 5601 5611 5620 5630 5632 5640 5650 5657 5662 5668 5676 5677 5678 5687 5691 5693 5694 5697 5702 5705 5709 5712 5717
5573 5565 5560 5558 5562 5558 5556 5553 5552 5553 5551 5549 5549 5548 5550 5552 5551 5556 5564 5570 5578 5581 5595 5605 5610 5618 5626 5632 5643 5652 5657 5662 5665 5671 5674 5679 5684 5685 5689 5692 5696 5698 5701 5706 5710
5562 5553 5549 5551 5552 5553 5551 5550 5547 5547 5544 5539 5542 5541 5543 5544 5547 5554 5560 5567 5571 5574 5582 5592 5599 5611 5620 5627 5633 5641 5648 5654 5662 5667 5668 5675 5681 5682 5684 5689 5687 5692 5695 5699 5701
5546 5543 5540 5541 5544 5539 5539 5542 5543 5544 5542 5540 5538 5538 5538 5540 5542 5548 5553 5560 5565 5567 5574 5586 5595 5604 5615 5624 5634 5637 5645 5651 5657 5659 5663 5669 5675 5679 5679 5681 5688 5690 5693 5695 5694
5535 5532 5529 5532 5534 5533 5535 5537 5539 5540 5539 5536 5535 5534 5532 5534 5537 5543 5550 5554 5558 5569 5576 5585 5594 5604 5610 5618 5624 5632 5640 5646 5649 5654 5658 5661 5669 5671 5674 5678 5684 5685 5688 5692 5694
5527 5524 5524 5526 5527 5530 5532 5534 5535 5536 5534 5532 5532 5530 5529 5531 5535 5541 5548 5555 5560 5565 5574 5585 5593 5600 5606 5614 5621 5629 5634 5639 5645 5649 5654 5659 5662 5666 5673 5674 5677 5679 5683 5685 5685
5520 5518 5517 5522 5524 5526 5528 5531 5531 5531 5531 5530 5528 5526 5526 5529 5534 5540 5545 5552 5559 5564 5573 5583 5590 5597 5604 5612 5620 5623 5631 5637 5642 5647 5651 5650 5661 5665 5668 5670 5672 5675 5678 5681 5684
Wind_Speed
17 16 17 17 17 20 21 20 19 19 20 20 19 20 19 18 16 13 16 15 12 20 24 26 26 29 31 35 39 43 44 40 35 35 32 30 32 40 37 41 49 55 55 51 42
14 15 17 18 20 21 21 22 23 24 22 20 21 22 20 18 18 16 17 19 17 19 22 26 28 31 32 33 38 41 43 41 37 34 31 34 38 45 51 48 44 46 50 49 48
16 17 17 17 18 20 20 21 22 24 25 26 24 22 21 20 21 15 23 18 20 20 26 28 30 31 32 33 35 38 36 40 42 37 33 35 45 50 52 59 57 49 43 41 48
20 22 23 24 25 27 28 29 28 27 26 26 28 28 28 24 24 20 22 23 23 22 23 25 28 31 33 34 33 36 38 42 43 42 43 44 46 51 55 56 46 31 36 36 42
27 27 28 29 30 31 32 33 34 35 31 30 30 29 29 29 29 27 23 27 28 27 26 29 29 31 33 32 35 36 37 41 42 44 44 48 48 48 47 45 42 37 35 36 36
31 32 34 35 36 36 36 35 37 38 38 39 38 36 35 28 36 36 32 29 31 29 30 30 31 34 36 37 36 32 35 41 43 43 46 49 52 48 45 47 44 39 36 38 37
33 32 33 35 36 39 39 38 38 40 42 45 48 46 41 27 41 37 35 36 35 34 33 32 33 36 34 37 33 33 37 40 45 43 43 48 54 48 46 46 44 41 36 37 37
35 35 37 39 40 42 44 42 42 43 44 47 50 49 43 35 46 39 39 38 37 36 36 37 36 36 37 36 38 39 40 40 41 39 38 47 50 49 49 47 45 45 41 36 36
40 42 44 48 51 50 48 48 48 50 52 54 53 50 46 44 45 43 43 40 38 38 39 40 40 36 37 41 41 42 42 37 32 34 38 41 43 45 47 46 45 46 42 37 35
48 49 51 52 52 52 52 53 53 52 58 57 56 58 55 49 45 45 43 41 42 44 43 44 44 38 43 44 40 35 38 36 34 30 35 36 38 39 39 43 43 43 44 38 36
50 51 53 57 60 62 59 60 60 57 56 57 61 60 55 51 53 47 42 44 45 46 45 45 43 43 39 30 29 34 37 39 34 27 31 31 33 35 23 36 40 42 43 38 35
55 55 57 59 61 62 63 63 65 67 60 58 59 60 55 46 54 55 50 48 47 46 45 48 46 41 34 33 38 36 38 41 35 16 25 25 26 30 28 29 28 29 41 35 32
55 54 56 60 62 66 65 70 70 70 69 60 63 62 57 59 58 57 57 51 51 49 49 48 42 35 35 35 40 38 38 36 31 19 28 26 28 36 38 36 25 22 28 31 32
63 65 67 65 67 69 70 74 74 74 76 68 64 64 61 63 61 54 59 56 54 52 48 48 40 40 41 38 40 39 34 31 32 29 33 36 38 41 37 42 35 29 34 27 30
72 72 73 77 77 73 77 68 64 63 73 58 51 52 50 49 43 42 40 52 54 49 50 45 41 41 41 37 38 36 31 33 37 39 36 42 45 46 34 37 47 38 36 33 26
78 80 81 83 75 71 61 58 61 62 69 53 44 42 33 32 29 29 33 42 44 43 48 44 38 39 37 37 36 25 30 29 32 42 46 43 43 36 32 25 26 37 42 45 37
86 89 89 85 69 60 55 59 61 62 54 44 35 37 42 34 24 35 30 35 44 44 47 46 42 36 36 34 27 23 32 31 36 39 44 36 39 38 32 32 25 31 33 38 34
89 89 76 66 57 56 55 56 56 40 31 28 25 35 31 47 51 44 36 34 39 38 37 43 45 41 37 36 33 39 34 43 43 39 32 24 30 15 21 38 33 36 36 34 23
89 77 65 53 51 51 47 42 29 25 28 26 29 39 43 27 24 49 36 46 41 44 30 38 35 27 34 32 37 32 41 36 33 36 32 28 25 17 20 28 31 37 40 34 28
80 61 52 46 44 40 32 22 23 20 24 22 17 22 49 33 26 24 26 47 45 38 22 32 33 29 28 30 39 35 35 37 39 37 36 28 27 25 33 32 32 33 37 36 37
65 51 43 34 31 24 24 13 16 15 18 18 22 29 23 41 31 34 22 51 46 47 36 31 39 36 41 40 33 37 40 36 31 40 40 31 27 31 37 37 34 36 38 40 39
59 45 38 27 15 25 14 16 19 20 15 18 24 24 20 25 45 41 27 28 42 54 48 37 44 42 43 47 43 35 33 38 37 38 41 37 32 31 33 39 44 37 37 39 41
52 40 32 18 10 14 14 25 23 22 20 18 17 17 23 26 31 44 33 30 43 26 45 38 48 44 41 38 47 38 32 44 37 35 39 40 32 23 32 28 41 35 32 36 41
49 34 24 11 12 17 21 24 12 14 18 19 16 12 15 23 23 27 38 38 21 27 40 39 45 48 41 41 40 36 33 42 35 41 39 38 32 37 21 27 31 21 27 24 20
40 29 21 11 18 24 22 22 15 15 18 21 17 19 15 20 19 17 24 24 30 28 41 40 39 39 35 39 40 41 35 33 41 43 41 17 29 19 29 23 21 26 34 32 29
34 26 15 11 16 15 13 11 15 13 23 14 18 18 15 15 19 19 17 18 20 25 52 47 40 37 36 26 37 41 36 40 36 33 34 28 26 33 20 22 26 17 16 22 25
27 18 8 9 8 9 8 2 14 19 14 16 17 18 11 14 5 13 29 18 12 18 38 43 41 41 35 29 35 40 42 37 39 34 31 22 21 19 19 14 16 23 23 23 23
Wind_Direction
335 332 329 322 319 319 321 318 313 307 306 301 291 296 299 296 292 293 269 273 271 260 261 263 262 260 256 254 252 250 248 249 250 249 248 228 211 225 231 240 240 245 250 253 259
331 327 326 321 317 318 319 318 317 313 307 300 292 291 296 293 293 291 275 264 264 265 264 263 263 262 263 255 254 252 253 251 250 248 240 210 207 228 230 229 238 241 245 255 255
332 328 323 318 311 307 309 312 311 310 312 307 299 293 288 290 294 288 279 270 269 266 265 266 264 263 261 258 257 256 258 252 248 244 239 223 213 221 236 240 235 244 253 253 252
322 320 320 318 314 315 312 310 307 303 303 303 303 299 292 289 290 276 282 280 276 272 256 258 261 262 267 261 260 257 253 247 245 242 242 238 229 228 230 244 254 249 250 248 254
316 313 313 313 310 304 304 302 302 299 299 299 297 294 293 291 281 290 271 277 278 276 265 262 262 263 266 264 258 258 252 248 246 241 239 245 243 241 247 249 250 248 247 247 245
307 305 304 304 304 302 300 302 294 292 291 296 297 292 291 294 283 284 282 276 272 270 271 267 266 262 256 258 256 258 256 250 246 242 238 241 245 243 250 253 254 253 248 253 246
312 307 305 303 301 299 297 295 295 286 280 282 288 290 292 286 284 281 280 276 275 271 271 266 259 259 260 260 257 249 250 249 245 243 239 240 244 245 243 249 253 255 253 251 251
313 310 308 307 307 305 302 298 296 295 289 280 279 280 285 281 285 285 274 270 270 265 266 266 262 256 259 258 251 248 246 248 249 248 245 237 245 248 250 248 249 251 249 247 251
310 309 306 307 307 303 304 299 296 296 293 292 285 285 284 276 279 279 283 280 267 261 261 260 261 259 255 254 253 247 250 252 254 256 253 247 246 245 249 252 249 252 252 250 248
306 305 303 302 300 300 300 300 297 293 293 291 287 284 286 283 278 277 278 275 268 260 254 255 257 255 250 252 265 266 258 251 246 245 252 249 246 238 245 246 249 252 249 248 247
310 305 303 301 299 299 299 294 291 289 288 285 284 283 283 283 285 279 268 266 263 259 256 255 254 255 262 261 253 247 243 244 241 244 248 243 245 242 247 243 244 247 249 248 246
308 306 301 300 301 303 300 294 292 289 286 282 277 278 283 274 275 275 268 262 259 258 253 250 249 254 250 244 246 241 240 242 238 218 223 226 240 236 212 224 239 256 254 249 247
311 310 309 309 306 303 294 290 290 286 286 287 283 279 279 273 278 269 269 257 249 247 246 247 251 248 241 236 243 242 238 237 238 217 211 224 218 224 222 218 215 235 253 251 241
317 314 310 306 300 297 291 290 289 288 286 290 282 280 277 273 272 267 261 254 246 245 243 242 240 236 236 231 237 239 233 230 221 203 212 220 217 220 213 208 206 215 240 243 242
315 311 307 304 304 301 298 297 292 288 284 293 284 280 273 274 273 267 259 252 246 243 241 240 238 237 234 234 237 239 229 224 217 213 213 213 227 224 226 217 220 217 231 247 235
314 309 306 304 307 302 299 289 281 278 278 282 273 274 265 267 255 247 245 244 244 237 237 234 232 227 231 233 224 231 220 217 215 222 226 215 224 233 229 229 232 225 225 235 227
314 311 310 310 308 302 293 279 278 278 290 290 268 241 234 224 239 226 220 228 237 236 229 227 224 223 222 218 212 222 213 202 215 223 232 231 233 246 240 246 235 222 244 240 236
316 314 318 316 302 292 283 283 287 297 287 270 247 225 230 227 231 227 208 218 238 236 232 232 222 218 212 209 201 215 226 214 216 223 234 239 241 244 229 241 231 220 238 239 242
320 321 317 307 294 291 295 300 300 291 285 276 255 215 217 232 246 228 229 220 220 228 233 225 227 224 206 200 202 207 220 219 225 227 235 239 234 191 234 234 227 229 231 233 238
324 322 314 301 298 304 308 308 308 307 294 282 288 253 222 223 242 247 218 208 219 213 221 216 217 201 201 217 202 218 226 216 213 220 224 218 228 226 219 230 235 224 231 240 245
325 323 315 308 311 309 311 314 324 311 310 280 283 270 254 232 247 229 213 201 217 205 204 190 212 197 195 212 211 207 218 217 220 221 223 214 224 228 220 226 216 230 237 236 233
326 322 314 301 253 291 290 289 284 304 287 292 293 275 255 245 234 223 217 217 218 221 207 185 212 201 202 205 206 217 228 217 212 216 222 223 229 242 213 229 236 223 233 232 237
326 317 310 304 283 280 277 282 277 292 288 309 289 289 237 244 241 230 231 217 214 198 193 194 201 203 202 198 201 207 210 213 216 221 227 225 227 233 243 243 211 234 236 226 237
325 317 301 267 216 264 249 264 295 306 287 322 279 303 271 235 244 221 228 232 184 194 173 195 199 201 206 214 204 201 204 212 218 221 223 233 236 230 235 241 242 245 232 235 227
322 316 295 239 225 243 261 268 273 293 309 287 304 278 282 236 212 218 236 234 223 195 202 194 202 208 222 208 196 199 198 211 218 222 226 231 240 243 259 249 243 245 242 260 252
319 312 281 250 240 238 254 259 282 277 305 298 305 288 288 230 196 201 205 194 221 199 199 195 196 211 212 192 198 196 200 210 212 221 226 228 229 235 255 246 244 236 230 237 244
313 302 261 220 234 245 214 3 347 289 287 300 299 301 281 191 147 177 183 172 152 183 194 186 206 209 213 216 220 216 219 211 216 219 225 204 208 229 254 222 232 242 254 270 266